This is the latest recevied weather packets stored in our database for station/object N2RDT. If no packets are shown the sender has not sent any weather packets the latest 10 day(s).
| Time | Temp. | Humidity | Pressure | Rain* | Wind** | Luminosity | Snow |
|---|---|---|---|---|---|---|---|
| 1777493454 | 20.56° C | 78% | 1010 hPa | 0 mm | - | 140 W/m² | - |
| 1777493149 | 20° C | 78% | 1009.9 hPa | 0 mm | - | 215 W/m² | - |
| 1777492847 | 20° C | 78% | 1010.1 hPa | 0 mm | - | 200 W/m² | - |
| 1777492543 | 20° C | 78% | 1010.2 hPa | 0 mm | - | 126 W/m² | - |
| 1777492239 | 20° C | 78% | 1010.4 hPa | 0 mm | - | 142 W/m² | - |
| 1777491937 | 19.44° C | 80% | 1010.5 hPa | 0 mm | - | 187 W/m² | - |
| 1777491632 | 19.44° C | 80% | 1010.6 hPa | 0 mm | - | 136 W/m² | - |
| 1777491330 | 19.44° C | 80% | 1010.8 hPa | 0 mm | - | 136 W/m² | - |
| 1777491027 | 19.44° C | 79% | 1010.8 hPa | 0 mm | - | 96 W/m² | - |
| 1777490722 | 19.44° C | 79% | 1010.7 hPa | 0 mm | - | 100 W/m² | - |
| 1777490420 | 20° C | 79% | 1010.7 hPa | 0 mm | - | 153 W/m² | - |
| 1777490116 | 20° C | 78% | 1010.8 hPa | 0 mm | - | 129 W/m² | - |
| 1777489814 | 19.44° C | 80% | 1010.8 hPa | 0 mm | - | 184 W/m² | - |
| 1777489511 | 19.44° C | 79% | 1010.9 hPa | 0 mm | - | 142 W/m² | - |
| 1777489207 | 20° C | 78% | 1011 hPa | 0 mm | - | 146 W/m² | - |
| 1777488904 | 19.44° C | 79% | 1011.1 hPa | 0 mm | - | 214 W/m² | - |
| 1777488601 | 19.44° C | 79% | 1011.1 hPa | 0 mm | - | 216 W/m² | - |
| 1777488299 | 19.44° C | 80% | 1011.4 hPa | 0 mm | - | 141 W/m² | - |
| 1777487997 | 19.44° C | 79% | 1011.4 hPa | 0 mm | - | 137 W/m² | - |
| 1777487695 | 19.44° C | 79% | 1011.5 hPa | 0 mm | - | 155 W/m² | - |
| 1777487391 | 19.44° C | 79% | 1011.6 hPa | 0 mm | - | 128 W/m² | - |
| 1777487089 | 19.44° C | 80% | 1011.5 hPa | 0 mm | - | 148 W/m² | - |
| 1777486784 | 19.44° C | 80% | 1011.5 hPa | 0 mm | - | 156 W/m² | - |
| 1777486483 | 19.44° C | 79% | 1011.7 hPa | 0 mm | - | 159 W/m² | - |
| 1777486180 | 19.44° C | 80% | 1011.8 hPa | 0 mm | - | 143 W/m² | - |
* Rain latest hour (hover to see other rain measurements)
** Current wind speed in m/s (hover to see current wind gust speed)